| time (UTC) | temp F | wind direction | speed MPH | gust MPH | rain 1hr in | rain 24hr in | rain mn in | humidity % | barometer mb |
| 20260904120158 | 79 | 207 | 0.0 | 5.0 | 0.00 | 0.00 | 0.00 | 70 | 1013.6 |
| 20260904115645 | 79 | 214 | 0.0 | 10.0 | 0.00 | 0.00 | 0.00 | 70 | 1013.6 |
| 20260904115132 | 79 | 173 | 0.0 | 2.0 | 0.00 | 0.00 | 0.00 | 70 | 1013.4 |
| 20260904114619 | 79 | 173 | 2.0 | 8.0 | 0.00 | 0.00 | 0.00 | 70 | 1013.3 |
| 20260904114106 | 78 | 200 | 0.0 | 6.0 | 0.00 | 0.00 | 0.00 | 70 | 1013.3 |
| 20260904113553 | 79 | 142 | 0.0 | 7.0 | 0.00 | 0.00 | 0.00 | 70 | 1013.2 |
| 20260904113040 | 79 | 146 | 0.0 | 3.0 | 0.00 | 0.00 | 0.00 | 70 | 1013.2 |
| 20260904112527 | 78 | 187 | 0.0 | 6.0 | 0.00 | 0.00 | 0.00 | 70 | 1013.2 |
| 20260904112014 | 78 | 210 | 0.0 | 3.0 | 0.00 | 0.00 | 0.00 | 70 | 1013.1 |
| 20260904111501 | 78 | 200 | 0.0 | 4.0 | 0.00 | 0.00 | 0.00 | 70 | 1013.1 |
| 20260904110948 | 78 | 197 | 0.0 | 3.0 | 0.00 | 0.00 | 0.00 | 70 | 1013.1 |
| 20260904110435 | 78 | 210 | 0.0 | 3.0 | 0.00 | 0.00 | 0.00 | 70 | 1013.0 |
| 20260904105922 | 78 | 217 | 1.0 | 3.0 | 0.00 | 0.00 | 0.00 | 70 | 1013.0 |
| 20260904105409 | 78 | 180 | 0.0 | 0.0 | 0.00 | 0.00 | 0.00 | 70 | 1013.0 |
| 20260904104856 | 78 | 180 | 0.0 | 7.0 | 0.00 | 0.00 | 0.00 | 70 | 1013.0 |
| 20260904104343 | 78 | 219 | 0.0 | 6.0 | 0.00 | 0.00 | 0.00 | 70 | 1013.0 |
| 20260904103830 | 78 | 215 | 5.0 | 7.0 | 0.00 | 0.00 | 0.00 | 70 | 1013.0 |
| 20260904103317 | 79 | 214 | 1.0 | 2.0 | 0.00 | 0.00 | 0.00 | 70 | 1013.0 |
| 20260904102804 | 79 | 163 | 0.0 | 4.0 | 0.00 | 0.00 | 0.00 | 69 | 1013.0 |
| 20260904102251 | 79 | 210 | 0.0 | 4.0 | 0.00 | 0.00 | 0.00 | 69 | 1012.9 |
| 20260904101738 | 79 | 149 | 0.0 | 4.0 | 0.00 | 0.00 | 0.00 | 69 | 1012.9 |
| 20260904101225 | 79 | 190 | 0.0 | 6.0 | 0.00 | 0.00 | 0.00 | 69 | 1012.9 |
| 20260904100712 | 79 | 172 | 0.0 | 4.0 | 0.00 | 0.00 | 0.00 | 68 | 1012.8 |
| 20260904100159 | 79 | 172 | 0.0 | 2.0 | 0.00 | 0.00 | 0.00 | 68 | 1012.8 |
| 20260904095646 | 79 | 181 | 0.0 | 6.0 | 0.00 | 0.00 | 0.00 | 68 | 1012.9 |
| 20260904095133 | 79 | 165 | 0.0 | 2.0 | 0.00 | 0.00 | 0.00 | 68 | 1012.8 |
| 20260904094620 | 80 | 170 | 0.0 | 4.0 | 0.00 | 0.00 | 0.00 | 67 | 1012.7 |
| 20260904094107 | 80 | 174 | 0.0 | 5.0 | 0.00 | 0.00 | 0.00 | 66 | 1012.7 |
| 20260904093554 | 80 | 158 | 0.0 | 0.0 | 0.00 | 0.00 | 0.00 | 65 | 1012.6 |
| 20260904093041 | 80 | 158 | 0.0 | 4.0 | 0.00 | 0.00 | 0.00 | 65 | 1012.6 |
| 20260904092528 | 80 | 200 | 0.0 | 2.0 | 0.00 | 0.00 | 0.00 | 67 | 1012.5 |
| 20260904092015 | 80 | 179 | 0.0 | 2.0 | 0.00 | 0.00 | 0.00 | 67 | 1012.5 |
| 20260904091502 | 80 | 180 | 0.0 | 4.0 | 0.00 | 0.00 | 0.00 | 66 | 1012.5 |
| 20260904090949 | 80 | 188 | 0.0 | 0.0 | 0.00 | 0.00 | 0.00 | 66 | 1012.5 |
| 20260904090436 | 80 | 188 | 0.0 | 0.0 | 0.00 | 0.00 | 0.00 | 66 | 1012.4 |
| 20260904085923 | 80 | 188 | 0.0 | 0.0 | 0.00 | 0.00 | 0.00 | 66 | 1012.3 |
| 20260904085410 | 80 | 188 | 0.0 | 5.0 | 0.00 | 0.00 | 0.00 | 66 | 1012.3 |
| 20260904084857 | 80 | 191 | 0.0 | 0.0 | 0.00 | 0.00 | 0.00 | 66 | 1012.2 |
| 20260904084344 | 80 | 191 | 0.0 | 2.0 | 0.00 | 0.00 | 0.00 | 65 | 1012.3 |
| 20260904083831 | 81 | 191 | 0.0 | 0.0 | 0.00 | 0.00 | 0.00 | 65 | 1012.2 |
| 20260904083318 | 80 | 191 | 0.0 | 4.0 | 0.00 | 0.00 | 0.00 | 65 | 1012.3 |
| 20260904082805 | 81 | 173 | 0.0 | 0.0 | 0.00 | 0.00 | 0.00 | 64 | 1012.3 |
| 20260904082252 | 81 | 173 | 0.0 | 4.0 | 0.00 | 0.00 | 0.00 | 65 | 1012.2 |
| 20260904081739 | 81 | 181 | 0.0 | 0.0 | 0.00 | 0.00 | 0.00 | 64 | 1012.1 |
| 20260904081226 | 81 | 181 | 0.0 | 0.0 | 0.00 | 0.00 | 0.00 | 64 | 1012.1 |
| 20260904080713 | 81 | 181 | 0.0 | 0.0 | 0.00 | 0.00 | 0.00 | 64 | 1012.1 |
| 20260904080200 | 81 | 97 | 0.0 | 3.0 | 0.00 | 0.00 | 0.00 | 63 | 1012.1 |
| 20260904075647 | 81 | 159 | 0.0 | 0.0 | 0.00 | 0.00 | 0.00 | 63 | 1012.0 |
| 20260904075134 | 81 | 159 | 0.0 | 0.0 | 0.00 | 0.00 | 0.00 | 63 | 1012.0 |
| 20260904074621 | 81 | 159 | 0.0 | 0.0 | 0.00 | 0.00 | 0.00 | 62 | 1012.0 |
| 20260904074108 | 82 | 159 | 0.0 | 0.0 | 0.00 | 0.00 | 0.00 | 62 | 1012.0 |
| 20260904073555 | 82 | 159 | 0.0 | 6.0 | 0.00 | 0.00 | 0.00 | 62 | 1012.0 |
| 20260904073042 | 82 | 235 | 0.0 | 0.0 | 0.00 | 0.00 | 0.00 | 61 | 1011.9 |
| 20260904072529 | 82 | 235 | 0.0 | 0.0 | 0.00 | 0.00 | 0.00 | 61 | 1012.0 |
| 20260904072016 | 82 | 235 | 0.0 | 0.0 | 0.00 | 0.00 | 0.00 | 61 | 1012.0 |
| 20260904071503 | 82 | 235 | 0.0 | 0.0 | 0.00 | 0.00 | 0.00 | 60 | 1012.1 |
| 20260904070950 | 83 | 235 | 0.0 | 0.0 | 0.00 | 0.00 | 0.00 | 59 | 1012.1 |
| 20260904070437 | 83 | 235 | 0.0 | 0.0 | 0.00 | 0.00 | 0.00 | 58 | 1012.1 |
| 20260904065924 | 83 | 235 | 0.0 | 0.0 | 0.00 | 0.00 | 0.00 | 58 | 1012.1 |
| 20260904065411 | 84 | 235 | 0.0 | 0.0 | 0.00 | 0.00 | 0.00 | 58 | 1012.1 |
| 20260904064858 | 84 | 235 | 0.0 | 0.0 | 0.00 | 0.00 | 0.00 | 57 | 1012.1 |
| 20260904064345 | 84 | 235 | 0.0 | 7.0 | 0.00 | 0.00 | 0.00 | 57 | 1012.2 |
| 20260904063832 | 84 | 221 | 2.0 | 4.0 | 0.00 | 0.00 | 0.00 | 56 | 1012.2 |
| 20260904063319 | 84 | 210 | 0.0 | 0.0 | 0.00 | 0.00 | 0.00 | 55 | 1012.2 |
| 20260904062806 | 85 | 210 | 0.0 | 9.0 | 0.00 | 0.00 | 0.00 | 55 | 1012.1 |
| 20260904062253 | 85 | 217 | 0.0 | 0.0 | 0.00 | 0.00 | 0.00 | 54 | 1012.2 |
| 20260904061740 | 85 | 217 | 0.0 | 2.0 | 0.00 | 0.00 | 0.00 | 53 | 1012.1 |
| 20260904061227 | 85 | 180 | 0.0 | 0.0 | 0.00 | 0.00 | 0.00 | 53 | 1012.1 |
| 20260904060714 | 85 | 180 | 0.0 | 3.0 | 0.00 | 0.00 | 0.00 | 53 | 1012.2 |
| 20260904060201 | 85 | 202 | 0.0 | 0.0 | 0.00 | 0.00 | 0.00 | 53 | 1012.2 |
| 20260904055648 | 85 | 202 | 0.0 | 3.0 | 0.00 | 0.00 | 0.00 | 52 | 1012.2 |
| 20260904055135 | 85 | 204 | 0.0 | 3.0 | 0.00 | 0.00 | 0.00 | 52 | 1012.1 |
| 20260904054622 | 86 | 221 | 0.0 | 7.0 | 0.00 | 0.00 | 0.00 | 51 | 1012.1 |
| 20260904054109 | 85 | 177 | 2.0 | 5.0 | 0.00 | 0.00 | 0.00 | 51 | 1012.0 |
| 20260904053556 | 85 | 200 | 0.0 | 3.0 | 0.00 | 0.00 | 0.00 | 51 | 1012.0 |
| 20260904053043 | 86 | 204 | 0.0 | 0.0 | 0.00 | 0.00 | 0.00 | 51 | 1012.0 |
| 20260904052530 | 85 | 204 | 0.0 | 0.0 | 0.00 | 0.00 | 0.00 | 50 | 1012.0 |
| 20260904052017 | 85 | 204 | 0.0 | 0.0 | 0.00 | 0.00 | 0.00 | 50 | 1011.9 |
| 20260904051504 | 85 | 204 | 0.0 | 3.0 | 0.00 | 0.00 | 0.00 | 50 | 1011.9 |
| 20260904050951 | 86 | 211 | 0.0 | 2.0 | 0.00 | 0.00 | 0.00 | 49 | 1011.9 |
| 20260904050438 | 86 | 184 | 0.0 | 1.0 | 0.00 | 0.00 | 0.00 | 49 | 1011.8 |
| 20260904045925 | 86 | 198 | 0.0 | 2.0 | 0.00 | 0.00 | 0.00 | 49 | 1011.9 |
| 20260904045412 | 86 | 198 | 0.0 | 3.0 | 0.00 | 0.00 | 0.00 | 49 | 1011.9 |
| 20260904044859 | 85 | 197 | 0.0 | 0.0 | 0.00 | 0.00 | 0.00 | 50 | 1011.9 |
| 20260904044346 | 85 | 197 | 0.0 | 6.0 | 0.00 | 0.00 | 0.00 | 50 | 1011.9 |
| 20260904043833 | 85 | 211 | 0.0 | 0.0 | 0.00 | 0.00 | 0.00 | 50 | 1011.8 |
| 20260904043320 | 86 | 211 | 0.0 | 0.0 | 0.00 | 0.00 | 0.00 | 50 | 1011.8 |
| 20260904042807 | 86 | 211 | 0.0 | 0.0 | 0.00 | 0.00 | 0.00 | 50 | 1011.8 |
| 20260904042254 | 86 | 211 | 0.0 | 0.0 | 0.00 | 0.00 | 0.00 | 50 | 1011.7 |
| 20260904041741 | 86 | 211 | 0.0 | 0.0 | 0.00 | 0.00 | 0.00 | 49 | 1011.7 |
| 20260904041228 | 87 | 211 | 0.0 | 2.0 | 0.00 | 0.00 | 0.00 | 49 | 1011.7 |
| 20260904040715 | 87 | 211 | 0.0 | 0.0 | 0.00 | 0.00 | 0.00 | 48 | 1011.8 |
| 20260904040202 | 87 | 211 | 0.0 | 0.0 | 0.00 | 0.00 | 0.00 | 49 | 1011.7 |
| 20260904035649 | 87 | 211 | 0.0 | 2.0 | 0.00 | 0.00 | 0.00 | 49 | 1011.7 |
| 20260904035136 | 87 | 128 | 0.0 | 0.0 | 0.00 | 0.00 | 0.00 | 49 | 1011.8 |
| 20260904034623 | 87 | 128 | 0.0 | 0.0 | 0.00 | 0.00 | 0.00 | 48 | 1011.7 |
| 20260904034110 | 87 | 128 | 0.0 | 0.0 | 0.00 | 0.00 | 0.00 | 48 | 1011.7 |
| 20260904033557 | 87 | 128 | 0.0 | 0.0 | 0.00 | 0.00 | 0.00 | 48 | 1011.7 |
| 20260904033044 | 87 | 128 | 1.0 | 1.0 | 0.00 | 0.00 | 0.00 | 47 | 1011.7 |
| 20260904032531 | 87 | 128 | 0.0 | 3.0 | 0.00 | 0.00 | 0.00 | 47 | 1011.7 |
| 20260904032018 | 87 | 105 | 0.0 | 4.0 | 0.00 | 0.00 | 0.00 | 48 | 1011.7 |
| 20260904031505 | 87 | 176 | 0.0 | 4.0 | 0.00 | 0.00 | 0.00 | 47 | 1011.6 |
| 20260904030952 | 87 | 179 | 0.0 | 3.0 | 0.00 | 0.00 | 0.00 | 48 | 1011.7 |
| 20260904030439 | 87 | 179 | 0.0 | 4.0 | 0.00 | 0.00 | 0.00 | 48 | 1011.6 |
| 20260904025926 | 87 | 124 | 0.0 | 5.0 | 0.00 | 0.00 | 0.00 | 47 | 1011.6 |
| 20260904025413 | 87 | 155 | 0.0 | 0.0 | 0.00 | 0.00 | 0.00 | 48 | 1011.6 |
| 20260904024900 | 87 | 155 | 0.0 | 0.0 | 0.00 | 0.00 | 0.00 | 48 | 1011.6 |
| 20260904024347 | 87 | 155 | 0.0 | 3.0 | 0.00 | 0.00 | 0.00 | 48 | 1011.6 |
| 20260904023834 | 87 | 172 | 0.0 | 6.0 | 0.00 | 0.00 | 0.00 | 48 | 1011.5 |
| 20260904023321 | 87 | 174 | 0.0 | 0.0 | 0.00 | 0.00 | 0.00 | 49 | 1011.5 |
| 20260904022808 | 87 | 174 | 0.0 | 0.0 | 0.00 | 0.00 | 0.00 | 49 | 1011.6 |
| 20260904022255 | 87 | 174 | 0.0 | 0.0 | 0.00 | 0.00 | 0.00 | 49 | 1011.6 |
| 20260904021742 | 87 | 174 | 0.0 | 0.0 | 0.00 | 0.00 | 0.00 | 49 | 1011.6 |
| 20260904021229 | 88 | 174 | 0.0 | 0.0 | 0.00 | 0.00 | 0.00 | 48 | 1011.6 |
| 20260904020716 | 88 | 174 | 0.0 | 2.0 | 0.00 | 0.00 | 0.00 | 48 | 1011.4 |
| 20260904020203 | 88 | 148 | 0.0 | 0.0 | 0.00 | 0.00 | 0.00 | 48 | 1011.4 |
| 20260904015650 | 88 | 148 | 0.0 | 2.0 | 0.00 | 0.00 | 0.00 | 47 | 1011.3 |
| 20260904015137 | 88 | 184 | 0.0 | 0.0 | 0.00 | 0.00 | 0.00 | 47 | 1011.3 |
| 20260904014624 | 88 | 184 | 0.0 | 0.0 | 0.00 | 0.00 | 0.00 | 47 | 1011.2 |
| 20260904014111 | 88 | 184 | 0.0 | 0.0 | 0.00 | 0.00 | 0.00 | 47 | 1011.1 |
| 20260904013558 | 89 | 184 | 0.0 | 0.0 | 0.00 | 0.00 | 0.00 | 46 | 1011.0 |
| 20260904013045 | 89 | 184 | 0.0 | 0.0 | 0.00 | 0.00 | 0.00 | 45 | 1010.9 |
| 20260904012532 | 90 | 184 | 0.0 | 0.0 | 0.00 | 0.00 | 0.00 | 44 | 1010.8 |
| 20260904012019 | 90 | 184 | 0.0 | 0.0 | 0.00 | 0.00 | 0.00 | 44 | 1010.8 |
| 20260904011506 | 90 | 184 | 0.0 | 0.0 | 0.00 | 0.00 | 0.00 | 43 | 1010.8 |
| 20260904010953 | 90 | 184 | 0.0 | 0.0 | 0.00 | 0.00 | 0.00 | 43 | 1010.6 |
| 20260904010440 | 91 | 184 | 0.0 | 0.0 | 0.00 | 0.00 | 0.00 | 43 | 1010.6 |
| 20260904005927 | 91 | 184 | 0.0 | 0.0 | 0.00 | 0.00 | 0.00 | 42 | 1010.5 |
| 20260904005414 | 91 | 184 | 0.0 | 0.0 | 0.00 | 0.00 | 0.00 | 42 | 1010.5 |
| 20260904004901 | 91 | 184 | 0.0 | 0.0 | 0.00 | 0.00 | 0.00 | 42 | 1010.4 |
| 20260904004348 | 91 | 184 | 0.0 | 0.0 | 0.00 | 0.00 | 0.00 | 41 | 1010.3 |
| 20260904003835 | 91 | 184 | 0.0 | 0.0 | 0.00 | 0.00 | 0.00 | 42 | 1010.4 |
| 20260904003322 | 91 | 184 | 0.0 | 0.0 | 0.00 | 0.00 | 0.00 | 41 | 1010.4 |
| 20260904002809 | 92 | 184 | 0.0 | 4.0 | 0.00 | 0.00 | 0.00 | 40 | 1010.5 |
| 20260904002256 | 92 | 143 | 0.0 | 0.0 | 0.00 | 0.00 | 0.00 | 40 | 1010.4 |
| 20260904001743 | 92 | 143 | 0.0 | 6.0 | 0.00 | 0.00 | 0.00 | 40 | 1010.4 |
| 20260904001230 | 92 | 139 | 0.0 | 0.0 | 0.00 | 0.00 | 0.00 | 39 | 1010.3 |
| 20260904000717 | 93 | 139 | 0.0 | 7.0 | 0.00 | 0.00 | 0.00 | 39 | 1010.3 |
| 20260904000204 | 93 | 111 | 4.0 | 12.0 | 0.00 | 0.00 | 0.00 | 38 | 1010.4 |
| 20260903235651 | 93 | 159 | 5.0 | 13.0 | 0.00 | 0.00 | 0.00 | 38 | 1010.3 |
| 20260903235138 | 93 | 172 | 5.0 | 11.0 | 0.00 | 0.00 | 0.00 | 38 | 1010.3 |
| 20260903234625 | 93 | 174 | 0.0 | 3.0 | 0.00 | 0.00 | 0.00 | 38 | 1010.3 |
| 20260903234112 | 93 | 205 | 0.0 | 7.0 | 0.00 | 0.00 | 0.00 | 38 | 1010.4 |
| 20260903233559 | 93 | 219 | 3.0 | 11.0 | 0.00 | 0.00 | 0.00 | 38 | 1010.3 |
| 20260903233046 | 94 | 180 | 1.0 | 12.0 | 0.00 | 0.00 | 0.00 | 37 | 1010.3 |
| 20260903232533 | 94 | 190 | 0.0 | 7.0 | 0.00 | 0.00 | 0.00 | 37 | 1010.4 |
| 20260903232020 | 94 | 194 | 0.0 | 4.0 | 0.00 | 0.00 | 0.00 | 37 | 1010.3 |
| 20260903231507 | 94 | 159 | 0.0 | 7.0 | 0.00 | 0.00 | 0.00 | 36 | 1010.4 |
| 20260903230954 | 94 | 225 | 0.0 | 0.0 | 0.00 | 0.00 | 0.00 | 37 | 1010.3 |
| 20260903230441 | 94 | 225 | 2.0 | 11.0 | 0.00 | 0.00 | 0.00 | 37 | 1010.4 |
| 20260903225928 | 94 | 162 | 3.0 | 11.0 | 0.00 | 0.00 | 0.00 | 37 | 1010.2 |
| 20260903225415 | 94 | 146 | 2.0 | 9.0 | 0.00 | 0.00 | 0.00 | 38 | 1010.3 |
| 20260903224902 | 94 | 221 | 1.0 | 13.0 | 0.00 | 0.00 | 0.00 | 36 | 1010.3 |
| 20260903224349 | 94 | 172 | 4.0 | 5.0 | 0.00 | 0.00 | 0.00 | 37 | 1010.3 |
| 20260903223836 | 94 | 105 | 0.0 | 11.0 | 0.00 | 0.00 | 0.00 | 37 | 1010.3 |
| 20260903223323 | 94 | 176 | 0.0 | 11.0 | 0.00 | 0.00 | 0.00 | 36 | 1010.2 |
| 20260903222810 | 94 | 156 | 0.0 | 2.0 | 0.00 | 0.00 | 0.00 | 36 | 1010.2 |
| 20260903222257 | 94 | 198 | 0.0 | 10.0 | 0.00 | 0.00 | 0.00 | 36 | 1010.2 |
| 20260903221744 | 95 | 207 | 9.0 | 13.0 | 0.00 | 0.00 | 0.00 | 38 | 1010.2 |
| 20260903221231 | 95 | 165 | 0.0 | 12.0 | 0.00 | 0.00 | 0.00 | 36 | 1010.3 |
| 20260903220718 | 95 | 214 | 0.0 | 10.0 | 0.00 | 0.00 | 0.00 | 35 | 1010.3 |
| 20260903220205 | 95 | 207 | 1.0 | 10.0 | 0.00 | 0.00 | 0.00 | 36 | 1010.3 |
| 20260903215652 | 95 | 231 | 4.0 | 8.0 | 0.00 | 0.00 | 0.00 | 37 | 1010.3 |
| 20260903215139 | 95 | 183 | 5.0 | 9.0 | 0.00 | 0.00 | 0.00 | 36 | 1010.4 |
| 20260903214626 | 95 | 181 | 6.0 | 14.0 | 0.00 | 0.00 | 0.00 | 36 | 1010.5 |
| 20260903214113 | 95 | 172 | 0.0 | 10.0 | 0.00 | 0.00 | 0.00 | 35 | 1010.5 |
| 20260903213600 | 95 | 229 | 0.0 | 6.0 | 0.00 | 0.00 | 0.00 | 35 | 1010.5 |
| 20260903213047 | 94 | 222 | 2.0 | 11.0 | 0.00 | 0.00 | 0.00 | 36 | 1010.6 |
| 20260903212534 | 95 | 198 | 0.0 | 12.0 | 0.00 | 0.00 | 0.00 | 37 | 1010.8 |
| 20260903212021 | 95 | 208 | 0.0 | 6.0 | 0.00 | 0.00 | 0.00 | 36 | 1010.9 |
| 20260903211508 | 94 | 60 | 0.0 | 5.0 | 0.00 | 0.00 | 0.00 | 38 | 1011.1 |
| 20260903210955 | 94 | 143 | 4.0 | 11.0 | 0.00 | 0.00 | 0.00 | 37 | 1011.1 |
| 20260903210442 | 95 | 158 | 5.0 | 10.0 | 0.00 | 0.00 | 0.00 | 37 | 1011.1 |
| 20260903205929 | 95 | 172 | 0.0 | 0.0 | 0.00 | 0.00 | 0.00 | 37 | 1011.1 |
| 20260903205416 | 94 | 172 | 0.0 | 11.0 | 0.00 | 0.00 | 0.00 | 37 | 1011.2 |
| 20260903204903 | 94 | 219 | 3.0 | 7.0 | 0.00 | 0.00 | 0.00 | 38 | 1011.3 |
| 20260903204350 | 94 | 217 | 0.0 | 11.0 | 0.00 | 0.00 | 0.00 | 38 | 1011.3 |
| 20260903203837 | 94 | 142 | 1.0 | 10.0 | 0.00 | 0.00 | 0.00 | 39 | 1011.3 |
| 20260903203324 | 94 | 121 | 4.0 | 8.0 | 0.00 | 0.00 | 0.00 | 38 | 1011.3 |
| 20260903202811 | 94 | 215 | 0.0 | 10.0 | 0.00 | 0.00 | 0.00 | 38 | 1011.4 |
| 20260903202258 | 94 | 149 | 0.0 | 16.0 | 0.00 | 0.00 | 0.00 | 38 | 1011.5 |
| 20260903201745 | 94 | 173 | 1.0 | 10.0 | 0.00 | 0.00 | 0.00 | 39 | 1011.5 |
| 20260903201232 | 94 | 145 | 0.0 | 11.0 | 0.00 | 0.00 | 0.00 | 38 | 1011.5 |
| 20260903200719 | 94 | 134 | 0.0 | 8.0 | 0.00 | 0.00 | 0.00 | 38 | 1011.5 |
| 20260903200206 | 94 | 200 | 0.0 | 10.0 | 0.00 | 0.00 | 0.00 | 38 | 1011.6 |
| 20260903195653 | 94 | 207 | 4.0 | 11.0 | 0.00 | 0.00 | 0.00 | 38 | 1011.6 |
| 20260903195140 | 94 | 202 | 0.0 | 13.0 | 0.00 | 0.00 | 0.00 | 40 | 1011.6 |
| 20260903194627 | 93 | 243 | 2.0 | 7.0 | 0.00 | 0.00 | 0.00 | 40 | 1011.7 |
| 20260903194114 | 93 | 231 | 0.0 | 14.0 | 0.00 | 0.00 | 0.00 | 39 | 1011.7 |
| 20260903193601 | 94 | 208 | 1.0 | 12.0 | 0.00 | 0.00 | 0.00 | 39 | 1011.8 |
| 20260903193048 | 94 | 167 | 0.0 | 9.0 | 0.00 | 0.00 | 0.00 | 39 | 1011.8 |
| 20260903192535 | 94 | 235 | 0.0 | 8.0 | 0.00 | 0.00 | 0.00 | 40 | 1011.8 |
| 20260903192022 | 93 | 194 | 0.0 | 11.0 | 0.00 | 0.00 | 0.00 | 40 | 1011.9 |
| 20260903191509 | 93 | 221 | 0.0 | 11.0 | 0.00 | 0.00 | 0.00 | 40 | 1011.8 |
| 20260903190956 | 93 | 169 | 3.0 | 12.0 | 0.00 | 0.00 | 0.00 | 40 | 1011.9 |
| 20260903190443 | 93 | 197 | 0.0 | 13.0 | 0.00 | 0.00 | 0.00 | 40 | 1011.9 |
| 20260903185930 | 93 | 193 | 7.0 | 11.0 | 0.00 | 0.00 | 0.00 | 41 | 1011.9 |
| 20260903185417 | 93 | 195 | 0.0 | 10.0 | 0.00 | 0.00 | 0.00 | 41 | 1012.0 |
| 20260903184904 | 93 | 107 | 0.0 | 13.0 | 0.00 | 0.00 | 0.00 | 41 | 1012.1 |
| 20260903184351 | 93 | 138 | 4.0 | 15.0 | 0.00 | 0.00 | 0.00 | 42 | 1012.2 |
| 20260903183838 | 93 | 169 | 1.0 | 13.0 | 0.00 | 0.00 | 0.00 | 42 | 1012.1 |
| 20260903183325 | 93 | 239 | 2.0 | 10.0 | 0.00 | 0.00 | 0.00 | 41 | 1012.2 |
| 20260903182812 | 93 | 228 | 0.0 | 9.0 | 0.00 | 0.00 | 0.00 | 42 | 1012.3 |
| 20260903182259 | 92 | 186 | 3.0 | 12.0 | 0.00 | 0.00 | 0.00 | 42 | 1012.4 |
| 20260903181746 | 92 | 134 | 0.0 | 13.0 | 0.00 | 0.00 | 0.00 | 42 | 1012.5 |
| 20260903181233 | 92 | 159 | 0.0 | 11.0 | 0.00 | 0.00 | 0.00 | 44 | 1012.5 |
| 20260903180720 | 92 | 158 | 2.0 | 10.0 | 0.00 | 0.00 | 0.00 | 44 | 1012.6 |
| 20260903180207 | 92 | 215 | 5.0 | 14.0 | 0.00 | 0.00 | 0.00 | 43 | 1012.7 |
| 20260903175654 | 92 | 146 | 0.0 | 8.0 | 0.00 | 0.00 | 0.00 | 44 | 1012.6 |
| 20260903175141 | 92 | 44 | 0.0 | 16.0 | 0.00 | 0.00 | 0.00 | 44 | 1012.7 |
| 20260903174628 | 92 | 236 | 0.0 | 8.0 | 0.00 | 0.00 | 0.00 | 44 | 1012.8 |
| 20260903174115 | 92 | 255 | 0.0 | 9.0 | 0.00 | 0.00 | 0.00 | 44 | 1012.8 |
| 20260903173602 | 92 | 202 | 0.0 | 4.0 | 0.00 | 0.00 | 0.00 | 45 | 1012.8 |
| 20260903173049 | 92 | 225 | 0.0 | 7.0 | 0.00 | 0.00 | 0.00 | 44 | 1012.9 |
| 20260903172536 | 91 | 149 | 0.0 | 8.0 | 0.00 | 0.00 | 0.00 | 45 | 1013.0 |
| 20260903172023 | 91 | 160 | 1.0 | 10.0 | 0.00 | 0.00 | 0.00 | 44 | 1013.1 |
| 20260903171510 | 91 | 217 | 2.0 | 16.0 | 0.00 | 0.00 | 0.00 | 44 | 1013.2 |
| 20260903170957 | 91 | 173 | 0.0 | 9.0 | 0.00 | 0.00 | 0.00 | 45 | 1013.2 |
| 20260903170444 | 91 | 200 | 0.0 | 9.0 | 0.00 | 0.00 | 0.00 | 45 | 1013.2 |
| 20260903165931 | 90 | 188 | 0.0 | 8.0 | 0.00 | 0.00 | 0.00 | 46 | 1013.3 |
| 20260903165418 | 90 | 174 | 0.0 | 4.0 | 0.00 | 0.00 | 0.00 | 46 | 1013.3 |
| 20260903164905 | 89 | 240 | 0.0 | 13.0 | 0.00 | 0.00 | 0.00 | 45 | 1013.4 |
| 20260903164352 | 90 | 226 | 0.0 | 16.0 | 0.00 | 0.00 | 0.00 | 46 | 1013.4 |
| 20260903163839 | 90 | 167 | 3.0 | 8.0 | 0.00 | 0.00 | 0.00 | 46 | 1013.6 |
| 20260903163326 | 90 | 204 | 0.0 | 14.0 | 0.00 | 0.00 | 0.00 | 49 | 1013.6 |
| 20260903162813 | 89 | 134 | 4.0 | 6.0 | 0.00 | 0.00 | 0.00 | 49 | 1013.4 |
| 20260903162300 | 89 | 142 | 0.0 | 5.0 | 0.00 | 0.00 | 0.00 | 49 | 1013.6 |
| 20260903161747 | 89 | 222 | 0.0 | 10.0 | 0.00 | 0.00 | 0.00 | 50 | 1013.6 |
| 20260903161234 | 88 | 197 | 0.0 | 5.0 | 0.00 | 0.00 | 0.00 | 49 | 1013.6 |
| 20260903160721 | 88 | 169 | 3.0 | 9.0 | 0.00 | 0.00 | 0.00 | 51 | 1013.6 |
| 20260903160208 | 87 | 191 | 2.0 | 11.0 | 0.00 | 0.00 | 0.00 | 51 | 1013.7 |
| 20260903155655 | 87 | 256 | 0.0 | 11.0 | 0.00 | 0.00 | 0.00 | 51 | 1013.7 |
| 20260903155142 | 87 | 158 | 5.0 | 12.0 | 0.00 | 0.00 | 0.00 | 51 | 1013.7 |
| 20260903154629 | 87 | 214 | 0.0 | 6.0 | 0.00 | 0.00 | 0.00 | 52 | 1013.8 |
| 20260903154116 | 87 | 150 | 0.0 | 0.0 | 0.00 | 0.00 | 0.00 | 53 | 1013.8 |
| 20260903153603 | 86 | 150 | 0.0 | 7.0 | 0.00 | 0.00 | 0.00 | 54 | 1013.8 |
| 20260903153050 | 86 | 202 | 0.0 | 2.0 | 0.00 | 0.00 | 0.00 | 55 | 1013.8 |
| 20260903152537 | 86 | 291 | 3.0 | 7.0 | 0.00 | 0.00 | 0.00 | 54 | 1013.7 |
| 20260903152024 | 85 | 263 | 3.0 | 10.0 | 0.00 | 0.00 | 0.00 | 55 | 1013.6 |
| 20260903151511 | 85 | 191 | 3.0 | 7.0 | 0.00 | 0.00 | 0.00 | 55 | 1013.7 |
| 20260903150958 | 85 | 181 | 0.0 | 5.0 | 0.00 | 0.00 | 0.00 | 56 | 1013.8 |
| 20260903150445 | 84 | 148 | 0.0 | 9.0 | 0.00 | 0.00 | 0.00 | 56 | 1013.8 |
| 20260903145932 | 84 | 200 | 4.0 | 10.0 | 0.00 | 0.00 | 0.00 | 56 | 1013.7 |
| 20260903145419 | 84 | 215 | 0.0 | 9.0 | 0.00 | 0.00 | 0.00 | 56 | 1013.7 |
| 20260903144906 | 84 | 201 | 7.0 | 11.0 | 0.00 | 0.00 | 0.00 | 57 | 1013.8 |
| 20260903144353 | 84 | 166 | 10.0 | 10.0 | 0.00 | 0.00 | 0.00 | 57 | 1013.8 |
| 20260903143840 | 83 | 222 | 4.0 | 9.0 | 0.00 | 0.00 | 0.00 | 58 | 1013.8 |
| 20260903143327 | 83 | 245 | 4.0 | 17.0 | 0.00 | 0.00 | 0.00 | 57 | 1013.8 |
| 20260903142814 | 84 | 174 | 10.0 | 10.0 | 0.00 | 0.00 | 0.00 | 58 | 1013.8 |
| 20260903142301 | 83 | 255 | 0.0 | 3.0 | 0.00 | 0.00 | 0.00 | 58 | 1013.8 |
| 20260903141748 | 83 | 162 | 4.0 | 6.0 | 0.00 | 0.00 | 0.00 | 58 | 1013.8 |
| 20260903141235 | 83 | 243 | 3.0 | 7.0 | 0.00 | 0.00 | 0.00 | 57 | 1013.8 |
| 20260903140722 | 83 | 252 | 0.0 | 9.0 | 0.00 | 0.00 | 0.00 | 58 | 1013.9 |
| 20260903140209 | 83 | 218 | 3.0 | 15.0 | 0.00 | 0.00 | 0.00 | 57 | 1013.9 |
| 20260903135656 | 83 | 193 | 8.0 | 8.0 | 0.00 | 0.00 | 0.00 | 58 | 1013.9 |
| 20260903135143 | 83 | 187 | 0.0 | 13.0 | 0.00 | 0.00 | 0.00 | 59 | 1013.9 |
| 20260903134630 | 82 | 218 | 0.0 | 16.0 | 0.00 | 0.00 | 0.00 | 58 | 1013.9 |
| 20260903134117 | 82 | 191 | 8.0 | 9.0 | 0.00 | 0.00 | 0.00 | 58 | 1013.8 |
| 20260903133604 | 82 | 167 | 2.0 | 10.0 | 0.00 | 0.00 | 0.00 | 58 | 1013.8 |
| 20260903133051 | 82 | 211 | 0.0 | 7.0 | 0.00 | 0.00 | 0.00 | 59 | 1013.8 |
| 20260903132538 | 82 | 197 | 0.0 | 12.0 | 0.00 | 0.00 | 0.00 | 59 | 1013.8 |
| 20260903132025 | 82 | 200 | 0.0 | 4.0 | 0.00 | 0.00 | 0.00 | 59 | 1013.8 |
| 20260903131512 | 82 | 184 | 0.0 | 13.0 | 0.00 | 0.00 | 0.00 | 60 | 1013.8 |
| 20260903130959 | 82 | 211 | 3.0 | 6.0 | 0.00 | 0.00 | 0.00 | 60 | 1013.8 |
| 20260903130446 | 81 | 194 | 3.0 | 8.0 | 0.00 | 0.00 | 0.00 | 60 | 1013.7 |
| 20260903125933 | 81 | 156 | 3.0 | 9.0 | 0.00 | 0.00 | 0.00 | 61 | 1013.7 |
| 20260903125420 | 81 | 242 | 1.0 | 9.0 | 0.00 | 0.00 | 0.00 | 61 | 1013.6 |
| 20260903124907 | 81 | 240 | 2.0 | 18.0 | 0.00 | 0.00 | 0.00 | 61 | 1013.6 |
| 20260903124354 | 81 | 145 | 2.0 | 9.0 | 0.00 | 0.00 | 0.00 | 62 | 1013.6 |
| 20260903123841 | 80 | 190 | 4.0 | 7.0 | 0.00 | 0.00 | 0.00 | 62 | 1013.6 |
| 20260903123328 | 80 | 195 | 7.0 | 8.0 | 0.00 | 0.00 | 0.00 | 62 | 1013.6 |
| 20260903122815 | 80 | 152 | 3.0 | 16.0 | 0.00 | 0.00 | 0.00 | 63 | 1013.4 |
| 20260903122305 | 80 | 211 | 2.0 | 8.0 | 0.00 | 0.00 | 0.00 | 63 | 1013.4 |
| 20260903121749 | 80 | 135 | 1.0 | 8.0 | 0.00 | 0.00 | 0.00 | 63 | 1013.4 |
| 20260903121236 | 80 | 207 | 4.0 | 7.0 | 0.00 | 0.00 | 0.00 | 63 | 1013.3 |
| 20260903120723 | 80 | 110 | 2.0 | 10.0 | 0.00 | 0.00 | 0.00 | 63 | 1013.3 |